Ciudad Obregón International Airport

Jump to: basic info | weather | frequencies | runways | comments

Related pages: nearby airports | nearby navaids | notams | map

Basic information (top)

Codes: CEN MMCN
Location: lon 27.392599, lat -109.833000, elev 243 ft / 74 m msl
Status: medium_airport
Scheduled airline service: yes
Links: Wikipedia Mobile

Weather (top)

Current conditions (rec'd 2014/07/24 01:45Z):

MMCN 240145Z 00000KT 10SM FEW100 OVC200 36/14 A2976 RMK 8/067 HZY DSNT CB NE NNW AND PCPN NNW

Airport forecast (rec'd 2014/07/20 18:59Z):

TAF COR MMCN 201856Z 2018/2118 24010KT P6SM VC RA BKN030CB BKN080 BKN250 
      TEMPO 2020/2024 5SM TSRA OVC020CB 
     FM210300 14006KT P6SM BKN030 BKN100 OVC200 
      BECMG 2106/2107 BKN030CB 
      TEMPO 2111/2115 4SM RA BKN020CB 
     FM211700 24008KT P6SM BKN030 BKN100

Frequencies (top)

Verify before use: may be inaccurate or out of date.

APP: 121.3 MHz (APP)
ATIS: 127.6 MHz (ATIS)
TWR: 118.3 MHz (OBREGON TWR)

Runways (top)

13/31: 7,546 x 148 ft (2,300 x 45 m) — paved — lighted

Latest comments (top)

No comments yet for Ciudad Obregón International Airport

More... (top)

See also NOTAMs and nearby airports and navaids, or visit the Ciudad Obregón International Airport page at the main OurAirports website..